Regional Weather Roundup
Issued by NWS State College, PA

Home | Current Version | Previous Version | Text Only | Print | Product List | Glossary Off
Versions: 1 2 3 4 5 6 7 8 9 10 11 12 13 14 15 16 17 18 19 20 21 22 23 24 25 26 27 28 29 30 31 32 33 34 35 36 37 38 39 40 41 42 43 44 45 46 47 48 49 50

279
ASUS41 KCTP 290703
RWRCTP

REGIONAL WEATHER ROUNDUP
NATIONAL WEATHER SERVICE STATE COLLEGE PA
300 AM EDT FRI APR 29 2016

Note: "fair" indicates few or no clouds below 12,000 feet with no
significant weather and/or obstructions to visibility.

* = STATION THAT DOES NOT REPORT PRECIPITATION /E.G. RAIN...SNOW...ETC/
    THUNDER OR FOG.

PAZ002>004-007>009-013>016-020>023-029>032-290800-
WESTERN PENNSYLVANIA

CITY           SKY/WX    TMP DP  RH WIND       PRES   REMARKS
ERIE           CLOUDY    46  41  82 NE7       29.97F
MEADVILLE      CLOUDY    42  42 100 NE5       29.95S
FRANKLIN*      CLOUDY    43  39  87 E7        29.96S
NEW CASTLE     CLOUDY    44  43  96 CALM      29.96R FOG
BEAVER COUNTY  NOT AVBL
BUTLER*        CLOUDY    45  41  87 NE3       29.96R
PITTSBURGH INT CLOUDY    47  44  90 N6        29.92S FOG
PITTSBURGH     FOG       46  44  93 N5        29.91S VSB 1/4
INDIANA*       CLOUDY    45  45 100 E6        29.95F FOG
LATROBE        CLOUDY    48  48 100 CALM      29.92F
WASHINGTON CO* CLOUDY    46  45  93 N3        29.93R
$$

PAZ004>006-010>012-017>019-024>028-033>037-041-042-045-046-049>053-290800-
CENTRAL PENNSYLVANIA

CITY           SKY/WX    TMP DP  RH WIND       PRES   REMARKS
BRADFORD       CLOUDY    40  38  93 E8        29.95F
DUBOIS         CLOUDY    41  39  93 E7        29.94S FOG
CLEARFIELD     CLOUDY    42  40  92 E7        29.96F FOG
JOHNSTOWN      FOG       42  39  89 SE6       29.92S VSB 3/4
ALTOONA        CLOUDY    42  40  92 SE3       29.97F
STATE COLLEGE  DRIZZLE   42  42  97 NE3       29.98S
WILLIAMSPORT   CLOUDY    46  42  86 E5        30.00F
SELINSGROVE    CLOUDY    45  43  93 E5        30.01F FOG
FT INDIANTOWN  MIX PCPN  45  45 100 E5        30.01F FOG
CAPITAL CITY   CLOUDY    46  42  86 SE3       30.02S FOG
HARRISBURG     DRIZZLE   45  42  89 CALM      30.01S FOG
YORK           CLOUDY    44  42  93 NE7       30.00F FOG
$$

PAZ038>040-043-044-047-048-054-055-060>062-067>071-290800-
EASTERN PENNSYLVANIA

CITY           SKY/WX    TMP DP  RH WIND       PRES   REMARKS
SCRANTON       CLOUDY    45  42  89 CALM      30.00F
MOUNT POCONO   CLOUDY    42  39  89 SE3       29.99F
ALLENTOWN      CLOUDY    46  41  82 CALM      30.03S
QUAKERTOWN*    CLOUDY    43  41  93 CALM      30.04S
READING        CLOUDY    44  40  85 E5        30.02S
LANCASTER      CLOUDY    43  42  97 NE8       30.02S FOG
COATESVILLE    LGT RAIN  43  43 100 NE5       30.03R
POTTSTOWN      CLOUDY    43  43 100 NE5       30.04S FOG
BLUE BELL      CLOUDY    41  41 100 CALM      30.03R
DOYLESTOWN     CLOUDY    42  41  96 CALM      30.03F
WILLOW GROVE   NOT AVBL
NORTH PHILA    CLOUDY    46  43  89 NE6       30.05S
PHILADELPHIA   CLOUDY    45  41  86 NE8       30.04S
$$




USA.gov is the U.S. government's official web portal to all federal, state and local government web resources and services.